Weather History for Peachtree City, GA

Change the Weather History Date:

Thursday, September 26, 2013

  Actual Average Record
Temperature  
Mean Temperature 70 °F 68 °F  
Max Temperature 76 °F 80 °F 86 °F (2007)
Min Temperature 63 °F 57 °F 39 °F (2001)
Degree Days  
Heating Degree Days 0 1  
Month to date heating degree days 0 7  
Since 1 July heating degree days 0 7  
Cooling Degree Days 5 5  
Month to date cooling degree days 235 213  
Year to date cooling degree days 1497 1593  
Growing Degree Days 19 (Base 50)    
Moisture  
Dew Point 62 °F    
Average Humidity 82    
Maximum Humidity 100    
Minimum Humidity 64    
Precipitation  
Precipitation 0.00 in 0.14 in 1.98 in (2010)
Month to date precipitation 2.33 3.27  
Snow  
Snow 0.00 in - - ()
Month to date snowfall 0.0  
Since 1 July snowfall 0.0  
Since 1 September snowfall 0.0  
Snow Depth 0.00 in    
Sea Level Pressure  
Sea Level Pressure 29.95 in    
Wind  
Wind Speed 2 mph (NE)    
Max Wind Speed 9 mph    
Max Gust Speed 13 mph    
Visibility 9 miles    
Events      
T = Trace of Precipitation, MM = Missing Value Source: NWS Daily Summary

Daily Weather History Graph

Daily Weather History Graph

Search for Another Location

Airport:

Trip Planner

Search our weather history database for the weather conditions in past years. The results will help you decide how hot, cold, wet, or windy it might be!

Date:

Astronomy

Sep. 26, 2013 Rise Set
Actual Time 7:29 AM EDT 7:29 PM EDT
Civil Twilight 7:04 AM EDT 7:53 PM EDT
Nautical Twilight 6:35 AM EDT 8:22 PM EDT
Astronomical Twilight 6:06 AM EDT 8:51 PM EDT
Moon No Moon Rise 2:05 PM EDT (9/26)
Length of Visible Light 12h 49m
Length of Day
11h 59m
Waning Gibbous, 55% of the Moon is Illuminated
Sep 26
Waning Gibbous
Sep 26
Last Quarter
Oct 4
New
Oct 11
First Quarter
Oct 18
Full

Hourly Weather History & Observations

Time (EDT) Temp. Dew Point Humidity Pressure Visibility Wind Dir Wind Speed Gust Speed Precip Events Conditions
12:53 AM 64.0 °F 62.1 °F 93% 29.90 in 10.0 mi Calm Calm - N/A   Overcast
1:53 AM 64.0 °F 62.1 °F 93% 29.89 in 10.0 mi Variable 5.8 mph - N/A   Overcast
2:33 AM 64.4 °F 62.6 °F 94% 29.90 in 10.0 mi Calm Calm - N/A   Overcast
2:53 AM 64.0 °F 62.1 °F 93% 29.89 in 10.0 mi Calm Calm - N/A   Overcast
3:53 AM 64.0 °F 62.1 °F 93% 29.89 in 10.0 mi NE 3.5 mph - N/A   Overcast
4:15 AM 64.4 °F 62.6 °F 94% 29.89 in 10.0 mi NE 4.6 mph - N/A   Overcast
4:38 AM 64.4 °F 62.6 °F 94% 29.89 in 10.0 mi Variable 3.5 mph - N/A   Overcast
4:53 AM 64.0 °F 62.1 °F 93% 29.88 in 10.0 mi Calm Calm - N/A   Overcast
5:00 AM 64.4 °F 62.6 °F 94% 29.89 in 10.0 mi Calm Calm - N/A   Overcast
5:53 AM 64.0 °F 62.1 °F 93% 29.90 in 10.0 mi Calm Calm - N/A   Overcast
6:33 AM 64.4 °F 60.8 °F 88% 29.92 in 10.0 mi Calm Calm - N/A   Overcast
6:53 AM 64.0 °F 61.0 °F 90% 29.92 in 10.0 mi Calm Calm - N/A   Overcast
7:13 AM 64.4 °F 60.8 °F 88% 29.93 in 10.0 mi Calm Calm - N/A   Overcast
7:53 AM 63.0 °F 61.0 °F 93% 29.94 in 9.0 mi Calm Calm - N/A   Overcast
8:53 AM 64.9 °F 61.0 °F 87% 29.97 in 9.0 mi North 4.6 mph - N/A   Partly Cloudy
9:13 AM 64.4 °F 60.8 °F 88% 29.98 in 8.0 mi NNE 4.6 mph - N/A   Mostly Cloudy
9:53 AM 66.0 °F 60.1 °F 81% 29.99 in 8.0 mi Variable 5.8 mph - N/A   Overcast
10:53 AM 66.0 °F 60.1 °F 81% 30.00 in 8.0 mi NE 6.9 mph - N/A   Overcast
11:53 AM 69.1 °F 61.0 °F 75% 29.99 in 10.0 mi Calm Calm - N/A   Mostly Cloudy
12:02 PM 69.8 °F 60.8 °F 73% 30.00 in 10.0 mi NNE 4.6 mph - N/A   Mostly Cloudy
12:14 PM 71.6 °F 60.8 °F 69% 30.00 in 10.0 mi East 5.8 mph - N/A   Scattered Clouds
12:21 PM 71.6 °F 60.8 °F 69% 30.00 in 10.0 mi NE 4.6 mph - N/A   Mostly Cloudy
12:30 PM 71.6 °F 60.8 °F 69% 29.99 in 10.0 mi Calm Calm - N/A   Scattered Clouds
12:42 PM 73.4 °F 60.8 °F 65% 29.99 in 10.0 mi Variable 5.8 mph - N/A   Mostly Cloudy
12:53 PM 72.0 °F 61.0 °F 68% 29.98 in 10.0 mi Calm Calm - N/A   Mostly Cloudy
1:19 PM 73.4 °F 60.8 °F 65% 29.98 in 10.0 mi ESE 3.5 mph - N/A   Scattered Clouds
1:43 PM 73.4 °F 60.8 °F 65% 29.97 in 10.0 mi Calm Calm - N/A   Mostly Cloudy
1:53 PM 73.9 °F 61.0 °F 64% 29.96 in 10.0 mi NNE 3.5 mph - N/A   Overcast
2:31 PM 73.4 °F 62.6 °F 69% 29.96 in 10.0 mi East 4.6 mph - N/A   Mostly Cloudy
2:53 PM 73.9 °F 62.1 °F 66% 29.95 in 10.0 mi Calm Calm - N/A   Overcast
3:53 PM 75.0 °F 62.1 °F 64% 29.95 in 10.0 mi North 3.5 mph - N/A   Overcast
4:53 PM 75.0 °F 62.1 °F 64% 29.95 in 10.0 mi Calm Calm - N/A   Overcast
5:53 PM 75.9 °F 62.1 °F 62% 29.95 in 10.0 mi Variable 3.5 mph - N/A   Scattered Clouds
6:53 PM 72.0 °F 66.0 °F 81% 29.97 in 10.0 mi Calm Calm - N/A   Clear
7:53 PM 66.9 °F 64.9 °F 93% 29.98 in 7.0 mi Calm Calm - N/A   Clear
8:53 PM 64.0 °F 63.0 °F 96% 29.99 in 7.0 mi Calm Calm - N/A   Clear
9:53 PM 63.0 °F 62.1 °F 97% 30.01 in 6.0 mi Calm Calm - N/A   Clear
10:53 PM 64.0 °F 63.0 °F 96% 30.03 in 6.0 mi Calm Calm - N/A   Overcast
11:53 PM 64.0 °F 63.0 °F 96% 30.03 in 5.0 mi Calm Calm - N/A   Overcast